sat.trackr.live / text

‹ back to catalog

STARLINK-34184

NORAD 64024 · 2025-102C

PAYLOAD ACTIVE UNKNOWN

§ Identity

Operator
Country
US
Launch date
2025-05-16
Launch site
AFWTR
Launch vehicle
Mass (kg)
RCS (m²)

Purposes: comms

External: N2YO · Heavens-Above · Gunter

§ Orbital elements

Epoch: 2026-05-25T02:56:52.117152Z

Period
96.11 min
Inclination
70.0002°
Eccentricity
0.0002841
Mean motion
14.98336680 rev/d
Perigee alt
570.1 km
Apogee alt
574.0 km
Semi-major
6,950.2 km
B*
3.1768e-4
RAAN
281.6342°
Arg perigee
269.5764°
Mean anomaly
90.5069°
Rev number
5,729

§ Raw data

STARLINK-341841 64024U 25102C   26145.12282543  .00003700  00000+0  31768-3 0  99982 64024  70.0002 281.6342 0002841 269.5764  90.5069 14.98336680 57297

JSON: /api/v1/satellites/64024 · /tle

For live sub-satellite position, see the globe view (requires WebGL).

§ Visibility from observer

Set your observer location to see the next 7 days of passes ≥ 10°. The values pass through the URL so the page stays shareable.

No JS? Fill the form by hand. The geolocation button needs JavaScript.